Starlink 31651

operational
NORAD ID: 59860 Int'l Des: 2024-098 Owner: SPXS Country: US Constellation: starlink
LEOCIRCULAR

关于 Starlink 31651

正在加载描述...

实时位置

正在加载3D地球...

即将过境

高度历史

Altitude vs Time

uPlot chart will show altitude changes over time

两行轨道根数

1 59860U 24098C 25304.01106625 .00000193 00000-0 16522-4 0 9999
2 59860 42.9997 290.3399 0000385 291.1389 68.9422 15.27576814 82012
Epoch: Oct 31, 2025 • Age: 17 hours

当前状态

高度 482.1 km
速度 7.63 km/s
星下点 14.25°N, 2.59°W
发射日期 May 24, 2024
运行时间 1.4 years
类型 internet

技术详情

分类 Payload
质量 730.00 kg
干质量 700.00 kg
总质量 730.00 kg
长度 0.30 m
直径 4.10 m
跨度 29.00 m
形状 Box + pan
制造商 SPXS
平台类型 Starlink V2M
阶段状态 In Orbit
所有者/国家 SPXS/US

大型星座

Loading constellations...